PARS 1

Last updated on Fri Oct 04 2024 00:02:26 GMT+0000 (Coordinated Universal Time)

1 59065U 24039Q 24277.54769855 .00021734 00000+0 77631-3 0 9997 2 59065 97.4066 238.6246 0013587 174.2980 185.8417 15.28773468 33118
UTC large
Height (km)
Speed (km/s)
/
Latitude / Longitude
Inclination (degrees)
Orbital Period (minutes)
Azimuth
Elevation
Range (km)
Doppler Factor

Next 0 passes for location: London (51.5072 / 0.1276)

Sorry there are no passes over London.